TimeEDT,TemperatureF,Dew PointF,Humidity,Sea Level PressureIn,VisibilityMPH,Wind Direction,Wind SpeedMPH,Gust SpeedMPH,PrecipitationIn,Events,Conditions,WindDirDegrees,DateUTC
12:53 AM,73.9,62.1,66,30.00,10.0,NE,10.4,-,N/A,,Partly Cloudy,50,2012-10-22 04:53:00
1:53 AM,73.9,62.1,66,29.98,10.0,NE,9.2,-,N/A,,Clear,50,2012-10-22 05:53:00
2:53 AM,73.0,62.1,68,29.97,10.0,NE,10.4,-,N/A,,Clear,50,2012-10-22 06:53:00
3:53 AM,73.9,63.0,68,29.96,10.0,NE,9.2,-,N/A,,Scattered Clouds,50,2012-10-22 07:53:00
4:53 AM,73.9,63.0,68,29.96,10.0,NE,6.9,-,N/A,,Mostly Cloudy,50,2012-10-22 08:53:00
5:53 AM,73.9,62.1,66,29.98,10.0,ENE,11.5,-,N/A,,Partly Cloudy,60,2012-10-22 09:53:00
6:53 AM,73.9,62.1,66,30.00,10.0,ENE,9.2,-,N/A,,Scattered Clouds,70,2012-10-22 10:53:00
8:53 AM,77.0,62.1,60,30.02,10.0,East,13.8,-,N/A,,Partly Cloudy,80,2012-10-22 12:53:00
9:53 AM,79.0,63.0,58,30.03,10.0,ENE,15.0,-,N/A,,Partly Cloudy,70,2012-10-22 13:53:00
10:53 AM,80.1,63.0,56,30.02,10.0,ENE,12.7,19.6,N/A,,Scattered Clouds,70,2012-10-22 14:53:00
11:53 AM,81.0,66.0,60,30.02,10.0,NE,15.0,-,N/A,,Scattered Clouds,50,2012-10-22 15:53:00
12:53 PM,80.1,66.9,64,30.01,10.0,ENE,16.1,-,N/A,,Scattered Clouds,60,2012-10-22 16:53:00
1:53 PM,81.0,64.9,58,29.99,10.0,NE,17.3,-,N/A,,Scattered Clouds,50,2012-10-22 17:53:00
2:53 PM,80.1,64.9,60,29.97,10.0,ENE,18.4,27.6,N/A,,Scattered Clouds,60,2012-10-22 18:53:00
3:53 PM,79.0,66.9,66,29.97,10.0,ENE,17.3,23.0,N/A,,Mostly Cloudy,60,2012-10-22 19:53:00
4:53 PM,80.1,64.0,58,29.97,10.0,ENE,16.1,26.5,N/A,,Scattered Clouds,70,2012-10-22 20:53:00
5:53 PM,78.1,66.0,66,29.96,10.0,ENE,17.3,20.7,N/A,,Partly Cloudy,70,2012-10-22 21:53:00
6:53 PM,77.0,66.0,69,29.98,10.0,ENE,15.0,-,N/A,,Mostly Cloudy,70,2012-10-22 22:53:00
7:53 PM,77.0,66.9,71,29.99,10.0,ENE,18.4,24.2,0.00,,Overcast,60,2012-10-22 23:53:00
8:53 PM,77.0,66.9,71,29.99,10.0,ENE,16.1,25.3,N/A,,Partly Cloudy,70,2012-10-23 00:53:00
9:53 PM,77.0,66.9,71,30.00,10.0,ENE,15.0,24.2,N/A,,Partly Cloudy,70,2012-10-23 01:53:00
10:53 PM,77.0,66.9,71,30.01,10.0,ENE,17.3,25.3,N/A,,Mostly Cloudy,70,2012-10-23 02:53:00
11:53 PM,77.0,64.9,66,30.00,10.0,ENE,17.3,25.3,N/A,,Mostly Cloudy,70,2012-10-23 03:53:00